Hourly Data Report for September 25, 2017

All times are specified in Local Standard Time (LST). Add 1 hour to adjust for Daylight Saving Time where and when it is observed.

BATHURST A
NEW BRUNSWICK

47°37'47.000" N
65°44'20.000" W
58.80 m
8100505
71574
ZBF

Download Data

Hourly Data (September 2017)
Hourly Data Report for September 25, 2017
Temp Definition
°C
Dew Point Temp Definition
°C
Rel Hum Definition
%
Wind Dir Definition
10's deg

Wind Spd Definition
km/h
Visibility Definition
km
Stn Press Definition
kPa
Hmdx Definition


Wind Chill Definition


Weather Definition


TIME
00:00 Legend Double Dagger 11.4 11.1 98 36 2 9.7 101.13     Fog
01:00 Legend Double Dagger 12.4 12.1 98 26 7 8.1 101.14     Fog
02:00 Legend Double Dagger 12.3 11.9 98 20 4 8.1 101.14     Fog
03:00 Legend Double Dagger 12.3 12.0 98 23 6 8.1 101.15     Fog
04:00 Legend Double Dagger 12.7 11.9 95 36 1 9.7 101.19     Fog
05:00 Legend Double Dagger 12.4 12.1 97 36 1 9.7 101.18     Fog
06:00 Legend Double Dagger 11.4 11.2 99 36 2 9.7 101.23     Fog
07:00 Legend Double Dagger 11.5 11.4 99 19 4 9.7 101.23     Fog
08:00 Legend Double Dagger 12.8 12.0 95 36 2 16.1 101.23     Mostly Cloudy
09:00 Legend Double Dagger 14.3 12.8 91 12 5 16.1 101.23     LegendNANA
10:00 Legend Double Dagger 15.6 13.4 87 14 6 24.1 101.21     LegendNANA
11:00 Legend Double Dagger 17.0 13.5 80 18 12 24.1 101.13     Cloudy
12:00 Legend Double Dagger 19.4 14.2 72 20 14 24.1 101.02     LegendNANA
13:00 Legend Double Dagger 20.5 14.9 70 17 14 24.1 100.94     LegendNANA
14:00 Legend Double Dagger 22.4 15.7 66 17 14 24.1 100.82 27   Clear
15:00 Legend Double Dagger 24.2 16.5 62 18 8 24.1 100.75 29   LegendNANA
16:00 Legend Double Dagger 25.1 17.2 61 17 8 24.1 100.67 31   LegendNANA
17:00 Legend Double Dagger 19.4 15.5 78 2 11 24.1 100.66     Clear
18:00 Legend Double Dagger 17.0 14.6 86 36 2 24.1 100.65     LegendNANA
19:00 Legend Double Dagger 16.1 14.5 90 27 3 24.1 100.59     LegendNANA
20:00 Legend Double Dagger 15.2 14.4 95 36 1 24.1 100.53     Clear
21:00 Legend Double Dagger 14.4 13.8 96 24 4 24.1 100.48     LegendNANA
22:00 Legend Double Dagger 14.5 13.8 95 36 1 24.1 100.42     LegendNANA
23:00 Legend Double Dagger 14.2 13.5 96 36 3 24.1 100.39     Clear

Notes on Data Quality.

Legend

  • E = Estimated
  • M = Missing
  • NA = Not Available
  • ‡ = Partner data that is not subject to review by the National Climate Archives
Date modified: